Time,TemperatureF,DewpointF,PressureIn,WindDirection,WindDirectionDegrees,WindSpeedMPH,WindSpeedGustMPH,Humidity,HourlyPrecipIn,Conditions,Clouds,dailyrainin,SolarRadiationWatts/m^2,SoftwareType,DateUTC
2013-04-04 00:00:00,37.9,30.0,30.31,ESE,113,0.0,0.0,73,0.00,OVC,,0.00,0.0,WeatherDisplay:10.37,2013-04-03 23:00:00,
2013-04-04 00:05:00,38.1,30.5,30.31,ESE,113,0.0,0.0,74,0.00,BKN,OVC,0.00,0.0,WeatherDisplay:10.37,2013-04-03 23:05:00,
2013-04-04 00:10:00,38.2,30.6,30.31,ESE,113,0.0,0.0,74,0.00,BKN,OVC,0.00,0.0,WeatherDisplay:10.37,2013-04-03 23:10:00,
2013-04-04 00:15:00,38.3,30.7,30.31,ESE,113,0.0,0.0,74,0.00,BKN,OVC,0.00,0.0,WeatherDisplay:10.37,2013-04-03 23:15:00,
2013-04-04 00:20:00,38.5,30.6,30.31,ESE,113,0.0,0.0,73,0.00,BKN,OVC,0.00,0.0,WeatherDisplay:10.37,2013-04-03 23:20:00,
2013-04-04 00:25:00,38.6,30.4,30.31,ESE,113,0.0,0.1,72,0.00,BKN,OVC,0.00,0.0,WeatherDisplay:10.37,2013-04-03 23:25:00,
2013-04-04 00:30:00,38.4,30.2,30.31,ESE,113,0.0,0.0,72,0.00,BKN,OVC,0.00,0.0,WeatherDisplay:10.37,2013-04-03 23:30:00,
2013-04-04 00:36:00,38.0,30.4,30.31,ESE,113,0.0,0.0,74,0.00,BKN,OVC,0.00,0.0,WeatherDisplay:10.37,2013-04-03 23:36:00,
2013-04-04 00:42:00,38.1,30.9,30.31,West,276,0.0,0.0,75,0.00,BKN,OVC,0.00,0.0,WeatherDisplay:10.37,2013-04-03 23:42:00,
2013-04-04 00:47:00,38.1,30.9,30.31,SSE,158,1.2,1.2,75,0.00,BKN,OVC,0.00,0.0,WeatherDisplay:10.37,2013-04-03 23:47:00,
2013-04-04 00:53:00,38.0,31.1,30.31,South,183,0.0,0.0,76,0.00,BKN,OVC,0.00,0.0,WeatherDisplay:10.37,2013-04-03 23:53:00,
2013-04-04 00:58:00,38.1,31.2,30.31,WSW,238,0.0,0.0,76,0.00,BKN,OVC,0.00,0.0,WeatherDisplay:10.37,2013-04-03 23:58:00,
2013-04-04 01:03:00,38.0,31.1,30.31,West,270,1.2,1.2,76,0.00,BKN,OVC,0.00,0.0,WeatherDisplay:10.37,2013-04-04 00:03:00,
2013-04-04 01:08:00,37.9,30.7,30.31,WNW,283,1.2,0.0,75,0.00,BKN,OVC,0.00,0.0,WeatherDisplay:10.37,2013-04-04 00:08:00,
2013-04-04 01:15:00,37.6,30.7,30.31,West,266,0.0,1.0,76,0.00,BKN,OVC,0.00,0.0,WeatherDisplay:10.37,2013-04-04 00:15:00,
2013-04-04 01:20:00,37.3,30.4,30.31,SW,226,0.0,0.0,76,0.00,BKN,OVC,0.00,0.0,WeatherDisplay:10.37,2013-04-04 00:20:00,
2013-04-04 01:25:00,37.2,30.3,30.30,SW,229,0.0,0.0,76,0.00,BKN,OVC,0.00,0.0,WeatherDisplay:10.37,2013-04-04 00:25:00,
2013-04-04 01:30:00,36.9,30.0,30.30,SW,234,0.0,0.0,76,0.00,BKN,OVC,0.00,0.0,WeatherDisplay:10.37,2013-04-04 00:30:00,
2013-04-04 01:35:00,36.7,30.2,30.31,SW,228,0.0,1.0,77,0.00,BKN,OVC,0.00,0.0,WeatherDisplay:10.37,2013-04-04 00:35:00,
2013-04-04 01:41:00,36.3,29.8,30.30,ESE,116,1.2,0.0,77,0.00,BKN,OVC,0.00,0.0,WeatherDisplay:10.37,2013-04-04 00:41:00,
2013-04-04 01:46:00,35.9,29.4,30.30,SSE,150,0.0,0.0,77,0.00,BKN,OVC,0.00,0.0,WeatherDisplay:10.37,2013-04-04 00:46:00,
2013-04-04 01:52:00,35.3,29.1,30.30,SSE,150,0.0,0.0,78,0.00,BKN,OVC,0.00,0.0,WeatherDisplay:10.37,2013-04-04 00:52:00,
2013-04-04 01:57:00,35.6,30.6,30.30,West,269,1.2,1.2,82,0.00,BKN,OVC,0.00,0.0,WeatherDisplay:10.37,2013-04-04 00:57:00,
2013-04-04 02:02:00,36.3,31.3,30.30,SW,231,0.0,0.0,82,0.00,BKN,OVC,0.00,0.0,WeatherDisplay:10.37,2013-04-04 01:02:00,
2013-04-04 02:07:00,36.7,31.4,30.30,SE,135,1.2,1.2,81,0.00,OVC,,0.00,0.0,WeatherDisplay:10.37,2013-04-04 01:07:00,
2013-04-04 02:12:00,36.7,31.1,30.30,SE,144,0.0,0.0,80,0.00,OVC,,0.00,0.0,WeatherDisplay:10.37,2013-04-04 01:12:00,
2013-04-04 02:17:00,36.8,30.9,30.30,WSW,246,0.0,0.0,79,0.00,OVC,,0.00,0.0,WeatherDisplay:10.37,2013-04-04 01:17:00,
2013-04-04 02:22:00,36.6,30.7,30.30,WNW,293,0.0,0.0,79,0.00,OVC,,0.00,0.0,WeatherDisplay:10.37,2013-04-04 01:22:00,
2013-04-04 02:27:00,36.4,30.5,30.30,West,269,0.0,0.0,79,0.00,OVC,,0.00,0.0,WeatherDisplay:10.37,2013-04-04 01:27:00,
2013-04-04 02:32:00,36.3,30.4,30.30,WSW,248,0.0,0.0,79,0.00,OVC,,0.00,0.0,WeatherDisplay:10.37,2013-04-04 01:32:00,
2013-04-04 02:37:00,36.0,29.8,30.30,WSW,248,0.0,0.0,78,0.00,OVC,,0.00,0.0,WeatherDisplay:10.37,2013-04-04 01:37:00,
2013-04-04 02:42:00,35.7,29.8,30.30,West,259,1.2,0.0,79,0.00,OVC,,0.00,0.0,WeatherDisplay:10.37,2013-04-04 01:42:00,
2013-04-04 02:47:00,35.6,29.7,30.30,WSW,243,0.0,0.0,79,0.00,OVC,,0.00,0.0,WeatherDisplay:10.37,2013-04-04 01:47:00,
2013-04-04 02:52:00,35.6,29.7,30.30,WSW,240,0.0,0.0,79,0.00,OVC,,0.00,0.0,WeatherDisplay:10.37,2013-04-04 01:52:00,
2013-04-04 02:57:00,35.4,29.5,30.30,WSW,240,0.0,0.0,79,0.00,OVC,,0.00,0.0,WeatherDisplay:10.37,2013-04-04 01:57:00,
2013-04-04 03:02:00,35.2,29.6,30.30,WSW,240,0.0,0.0,80,0.00,OVC,,0.00,0.0,WeatherDisplay:10.37,2013-04-04 02:02:00,
2013-04-04 03:07:00,35.1,29.6,30.30,WSW,240,0.0,0.0,80,0.00,-RA,OVC,0.00,0.0,WeatherDisplay:10.37,2013-04-04 02:07:00,
2013-04-04 03:13:00,35.0,29.5,30.30,WSW,240,0.0,0.0,80,0.00,-RA,OVC,0.00,0.0,WeatherDisplay:10.37,2013-04-04 02:13:00,
2013-04-04 03:18:00,34.9,29.4,30.30,West,274,1.2,0.0,80,0.00,-RA,OVC,0.00,0.0,WeatherDisplay:10.37,2013-04-04 02:18:00,
2013-04-04 03:23:00,34.9,29.4,30.30,West,274,0.0,0.0,80,0.00,-RA,OVC,0.00,0.0,WeatherDisplay:10.37,2013-04-04 02:23:00,
2013-04-04 03:28:00,34.8,29.3,30.30,West,274,0.0,0.0,80,0.00,-RA,OVC,0.00,0.0,WeatherDisplay:10.37,2013-04-04 02:28:00,
2013-04-04 03:33:00,34.9,29.4,30.30,West,274,0.0,0.0,80,0.00,-RA,OVC,0.00,0.0,WeatherDisplay:10.37,2013-04-04 02:33:00,
2013-04-04 03:38:00,35.1,29.9,30.30,WSW,243,0.0,0.0,81,0.00,-RA,OVC,0.00,0.0,WeatherDisplay:10.37,2013-04-04 02:38:00,
2013-04-04 03:43:00,35.4,30.1,30.30,WSW,256,1.2,1.2,81,0.00,-RA,OVC,0.00,0.0,WeatherDisplay:10.37,2013-04-04 02:43:00,
2013-04-04 03:48:00,35.9,30.3,30.30,SW,235,3.5,3.5,80,0.00,-RA,OVC,0.00,0.0,WeatherDisplay:10.37,2013-04-04 02:48:00,
2013-04-04 03:53:00,36.3,30.1,30.30,WSW,252,2.3,2.3,78,0.00,-RA,OVC,0.00,0.0,WeatherDisplay:10.37,2013-04-04 02:53:00,
2013-04-04 03:58:00,36.4,30.2,30.30,West,273,2.0,2.0,78,0.00,-RA,OVC,0.00,0.0,WeatherDisplay:10.37,2013-04-04 02:58:00,
2013-04-04 04:04:00,36.4,29.9,30.29,WSW,250,3.5,3.5,77,0.00,OVC,,0.00,0.0,WeatherDisplay:10.37,2013-04-04 03:04:00,
2013-04-04 04:09:00,36.6,29.7,30.29,SW,226,3.5,3.5,76,0.00,OVC,,0.00,0.0,WeatherDisplay:10.37,2013-04-04 03:09:00,
2013-04-04 04:14:00,36.6,29.7,30.29,West,262,2.3,2.3,76,0.00,OVC,,0.00,0.0,WeatherDisplay:10.37,2013-04-04 03:14:00,
2013-04-04 04:19:00,36.5,29.7,30.29,WNW,283,2.3,2.3,76,0.00,OVC,,0.00,0.0,WeatherDisplay:10.37,2013-04-04 03:19:00,
2013-04-04 04:25:00,36.5,29.7,30.29,SW,229,3.5,3.5,76,0.00,OVC,,0.00,0.0,WeatherDisplay:10.37,2013-04-04 03:25:00,
2013-04-04 04:30:00,36.4,29.9,30.29,SE,140,1.2,1.2,77,0.00,OVC,,0.00,0.0,WeatherDisplay:10.37,2013-04-04 03:30:00,
2013-04-04 04:35:00,36.2,29.7,30.30,WSW,255,2.3,2.3,77,0.00,BKN,OVC,0.00,0.0,WeatherDisplay:10.37,2013-04-04 03:35:00,
2013-04-04 04:40:00,36.2,29.7,30.29,SSW,210,0.0,0.0,77,0.00,BKN,OVC,0.00,0.0,WeatherDisplay:10.37,2013-04-04 03:40:00,
2013-04-04 04:47:00,36.1,29.3,30.29,West,278,1.2,1.2,76,0.00,BKN,OVC,0.00,0.0,WeatherDisplay:10.37,2013-04-04 03:47:00,
2013-04-04 04:52:00,36.1,29.3,30.29,WNW,288,1.2,1.2,76,0.00,BKN,OVC,0.00,0.0,WeatherDisplay:10.37,2013-04-04 03:52:00,
2013-04-04 04:57:00,36.0,29.2,30.29,SW,222,0.0,0.0,76,0.00,BKN,OVC,0.00,0.0,WeatherDisplay:10.37,2013-04-04 03:57:00,
2013-04-04 05:00:00,35.9,29.1,30.29,SW,229,0.0,0.1,76,0.00,BKN,OVC,0.00,0.0,WeatherDisplay:10.37,2013-04-04 04:00:00,
2013-04-04 05:01:00,35.8,29.3,30.29,SW,229,0.0,0.0,77,0.00,BKN,OVC,0.00,0.0,WeatherDisplay:10.37,2013-04-04 04:01:00,
2013-04-04 05:03:00,35.7,29.2,30.29,West,274,0.0,0.0,77,0.00,BKN,OVC,0.00,0.0,WeatherDisplay:10.37,2013-04-04 04:03:00,
2013-04-04 05:08:00,35.6,29.1,30.29,South,181,0.0,0.0,77,0.00,BKN,OVC,0.00,0.0,WeatherDisplay:10.37,2013-04-04 04:08:00,
2013-04-04 05:13:00,35.6,29.4,30.29,SSW,212,0.0,0.1,78,0.00,BKN,OVC,0.00,0.0,WeatherDisplay:10.37,2013-04-04 04:13:00,
2013-04-04 05:18:00,35.6,29.4,30.29,SSE,161,1.2,1.2,78,0.00,BKN,OVC,0.00,0.0,WeatherDisplay:10.37,2013-04-04 04:18:00,
2013-04-04 05:23:00,35.6,29.4,30.29,SW,229,0.0,0.0,78,0.00,BKN,OVC,0.00,0.0,WeatherDisplay:10.37,2013-04-04 04:23:00,
2013-04-04 05:28:00,35.5,29.3,30.29,West,271,1.2,0.0,78,0.00,BKN,OVC,0.00,0.0,WeatherDisplay:10.37,2013-04-04 04:28:00,
2013-04-04 05:33:00,35.6,29.4,30.29,SSE,167,3.5,3.5,78,0.00,OVC,,0.00,0.0,WeatherDisplay:10.37,2013-04-04 04:33:00,
2013-04-04 05:38:00,35.9,29.7,30.29,West,280,3.0,3.0,78,0.00,OVC,,0.00,0.0,WeatherDisplay:10.37,2013-04-04 04:38:00,
2013-04-04 08:04:00,36.8,31.5,30.30,SSW,200,1.2,0.0,81,0.00,OVC,,0.00,0.0,WeatherDisplay:10.37,2013-04-04 07:04:00,
2013-04-04 08:09:00,36.8,31.5,30.30,NNW,337,0.0,0.0,81,0.00,OVC,,0.00,0.0,WeatherDisplay:10.37,2013-04-04 07:09:00,
2013-04-04 08:14:00,36.9,31.6,30.30,SE,124,2.3,2.3,81,0.00,OVC,,0.00,0.0,WeatherDisplay:10.37,2013-04-04 07:14:00,
2013-04-04 08:20:00,37.0,31.4,30.31,SE,145,1.0,1.0,80,0.00,OVC,,0.00,0.0,WeatherDisplay:10.37,2013-04-04 07:20:00,
2013-04-04 08:25:00,37.3,31.7,30.31,South,176,0.0,0.0,80,0.00,OVC,,0.00,0.0,WeatherDisplay:10.37,2013-04-04 07:25:00,
2013-04-04 08:30:00,37.4,31.5,30.30,SW,229,0.0,0.1,79,0.00,OVC,,0.00,0.0,WeatherDisplay:10.37,2013-04-04 07:30:00,
2013-04-04 08:35:00,37.6,32.0,30.31,WSW,244,0.0,0.1,80,0.00,SCT,OVC,0.00,0.0,WeatherDisplay:10.37,2013-04-04 07:35:00,
2013-04-04 08:40:00,38.1,32.2,30.31,SSE,150,1.2,0.0,79,0.00,SCT,OVC,0.00,0.0,WeatherDisplay:10.37,2013-04-04 07:40:00,
2013-04-04 08:45:00,38.5,32.6,30.31,WNW,299,1.0,2.0,79,0.00,SCT,OVC,0.00,0.0,WeatherDisplay:10.37,2013-04-04 07:45:00,
2013-04-04 08:50:00,38.6,32.3,30.31,SSE,148,1.2,0.0,78,0.00,SCT,OVC,0.00,0.0,WeatherDisplay:10.37,2013-04-04 07:50:00,
2013-04-04 08:55:00,38.8,32.5,30.31,NW,314,1.2,1.2,78,0.00,SCT,OVC,0.00,0.0,WeatherDisplay:10.37,2013-04-04 07:55:00,
2013-04-04 09:00:00,39.0,33.0,30.31,ESE,115,2.3,2.3,79,0.00,SCT,OVC,0.00,0.0,WeatherDisplay:10.37,2013-04-04 08:00:00,
2013-04-04 09:05:00,39.3,33.6,30.31,South,175,2.3,2.3,80,0.00,SCT,OVC,0.00,0.0,WeatherDisplay:10.37,2013-04-04 08:05:00,
2013-04-04 09:10:00,39.6,33.3,30.31,SE,131,0.0,0.0,78,0.00,SCT,OVC,0.00,0.0,WeatherDisplay:10.37,2013-04-04 08:10:00,
2013-04-04 09:16:00,39.9,33.6,30.31,SE,138,3.5,3.5,78,0.00,SCT,OVC,0.00,0.0,WeatherDisplay:10.37,2013-04-04 08:16:00,
2013-04-04 09:21:00,40.2,33.6,30.31,SE,136,1.2,1.2,77,0.00,SCT,OVC,0.00,0.0,WeatherDisplay:10.37,2013-04-04 08:21:00,
2013-04-04 09:26:00,40.4,33.4,30.31,WNW,288,0.0,0.3,76,0.00,SCT,OVC,0.00,0.0,WeatherDisplay:10.37,2013-04-04 08:26:00,
2013-04-04 09:31:00,40.4,33.4,30.31,SE,129,2.0,2.0,76,0.00,SCT,OVC,0.00,0.0,WeatherDisplay:10.37,2013-04-04 08:31:00,
2013-04-04 09:36:00,40.2,32.9,30.31,WSW,245,2.3,2.3,75,0.00,SCT,OVC,0.00,0.0,WeatherDisplay:10.37,2013-04-04 08:36:00,
2013-04-04 09:43:00,40.3,33.3,30.31,West,264,3.5,3.5,76,0.00,SCT,OVC,0.00,0.0,WeatherDisplay:10.37,2013-04-04 08:43:00,
2013-04-04 09:52:00,40.7,34.4,30.31,West,259,1.2,1.4,78,0.00,SCT,OVC,0.00,0.0,WeatherDisplay:10.37,2013-04-04 08:52:00,
2013-04-04 09:58:00,41.0,35.0,30.31,West,273,2.3,2.3,79,0.00,SCT,OVC,0.00,0.0,WeatherDisplay:10.37,2013-04-04 08:58:00,
2013-04-04 10:03:00,41.4,35.1,30.31,SW,228,2.3,2.3,78,0.00,SCT,OVC,0.00,0.0,WeatherDisplay:10.37,2013-04-04 09:03:00,
2013-04-04 10:08:00,42.1,35.4,30.31,West,277,2.3,2.3,77,0.00,SCT,OVC,0.00,0.0,WeatherDisplay:10.37,2013-04-04 09:08:00,
2013-04-04 10:13:00,42.0,33.6,30.31,WNW,294,6.0,6.0,72,0.00,SCT,OVC,0.00,0.0,WeatherDisplay:10.37,2013-04-04 09:13:00,
2013-04-04 10:18:00,41.6,33.2,30.31,South,179,1.2,1.2,72,0.00,SCT,OVC,0.00,0.0,WeatherDisplay:10.37,2013-04-04 09:18:00,
2013-04-04 10:23:00,41.5,33.1,30.31,SSE,163,1.2,1.2,72,0.00,SCT,OVC,0.00,0.0,WeatherDisplay:10.37,2013-04-04 09:23:00,
2013-04-04 10:28:00,41.6,33.6,30.31,NW,305,2.3,2.3,73,0.00,SCT,OVC,0.00,0.0,WeatherDisplay:10.37,2013-04-04 09:28:00,
2013-04-04 10:33:00,42.7,34.3,30.30,WNW,294,2.3,2.3,72,0.00,SCT,OVC,0.00,0.0,WeatherDisplay:10.37,2013-04-04 09:33:00,
2013-04-04 10:38:00,43.2,33.7,30.30,SW,230,2.3,2.3,69,0.00,SCT,OVC,0.00,0.0,WeatherDisplay:10.37,2013-04-04 09:38:00,
2013-04-04 10:43:00,43.1,32.9,30.30,West,280,3.5,3.5,67,0.00,SCT,OVC,0.00,0.0,WeatherDisplay:10.37,2013-04-04 09:43:00,
2013-04-04 10:48:00,43.5,33.3,30.31,West,280,3.5,3.5,67,0.00,SCT,OVC,0.00,0.0,WeatherDisplay:10.37,2013-04-04 09:48:00,
2013-04-04 10:53:00,43.3,33.1,30.30,WSW,252,1.2,1.2,67,0.00,SCT,OVC,0.00,0.0,WeatherDisplay:10.37,2013-04-04 09:53:00,
2013-04-04 10:58:00,43.2,32.6,30.30,South,183,2.3,2.3,66,0.00,SCT,OVC,0.00,0.0,WeatherDisplay:10.37,2013-04-04 09:58:00,
2013-04-04 11:03:00,43.1,32.1,30.30,SSW,207,0.0,0.0,65,0.00,SCT,OVC,0.00,0.0,WeatherDisplay:10.37,2013-04-04 10:03:00,
2013-04-04 11:08:00,43.0,32.0,30.30,SE,142,2.3,2.3,65,0.00,SCT,OVC,0.00,0.0,WeatherDisplay:10.37,2013-04-04 10:08:00,
2013-04-04 11:13:00,44.0,33.4,30.30,SE,143,3.5,3.5,66,0.00,SCT,OVC,0.00,0.0,WeatherDisplay:10.37,2013-04-04 10:13:00,
2013-04-04 11:19:00,45.6,33.7,30.30,NNE,12,2.3,2.3,63,0.00,SCT,OVC,0.00,0.0,WeatherDisplay:10.37,2013-04-04 10:19:00,
2013-04-04 11:24:00,45.7,32.2,30.30,South,190,2.3,2.3,59,0.00,SCT,OVC,0.00,0.0,WeatherDisplay:10.37,2013-04-04 10:24:00,
2013-04-04 11:30:00,45.2,32.9,30.30,West,275,0.0,0.9,62,0.00,SCT,OVC,0.00,0.0,WeatherDisplay:10.37,2013-04-04 10:30:00,
2013-04-04 11:35:00,45.3,31.3,30.30,SW,227,1.0,3.0,58,0.00,SCT,OVC,0.00,0.0,WeatherDisplay:10.37,2013-04-04 10:35:00,
2013-04-04 11:40:00,45.3,31.4,30.30,SSW,193,2.0,6.0,58,0.00,SCT,OVC,0.00,0.0,WeatherDisplay:10.37,2013-04-04 10:40:00,
2013-04-04 11:45:00,45.1,32.0,30.30,SE,124,3.5,3.5,60,0.00,SCT,OVC,0.00,0.0,WeatherDisplay:10.37,2013-04-04 10:45:00,
2013-04-04 11:50:00,46.1,31.3,30.30,SSE,148,4.0,4.0,56,0.00,SCT,OVC,0.00,0.0,WeatherDisplay:10.37,2013-04-04 10:50:00,
2013-04-04 11:55:00,45.6,30.3,30.30,West,269,2.3,2.3,55,0.00,SCT,OVC,0.00,0.0,WeatherDisplay:10.37,2013-04-04 10:55:00,
2013-04-04 12:00:00,45.8,30.5,30.30,SE,145,1.2,1.2,55,0.00,SCT,OVC,0.00,0.0,WeatherDisplay:10.37,2013-04-04 11:00:00,
2013-04-04 12:05:00,46.4,31.1,30.30,SE,138,2.3,2.3,55,0.00,SCT,OVC,0.00,0.0,WeatherDisplay:10.37,2013-04-04 11:05:00,
2013-04-04 12:10:00,46.2,31.8,30.30,WSW,253,2.0,2.0,57,0.00,SCT,OVC,0.00,0.0,WeatherDisplay:10.37,2013-04-04 11:10:00,
2013-04-04 12:15:00,45.8,31.0,30.30,WSW,248,3.5,3.5,56,0.00,SCT,OVC,0.00,0.0,WeatherDisplay:10.37,2013-04-04 11:15:00,
2013-04-04 12:20:00,46.3,31.4,30.30,WNW,285,4.6,4.6,56,0.00,SCT,OVC,0.00,0.0,WeatherDisplay:10.37,2013-04-04 11:20:00,
2013-04-04 12:25:00,46.4,31.1,30.30,WSW,246,4.6,4.6,55,0.00,SCT,OVC,0.00,0.0,WeatherDisplay:10.37,2013-04-04 11:25:00,
2013-04-04 12:30:00,46.8,30.6,30.30,SW,219,3.5,3.5,53,0.00,SCT,OVC,0.00,0.0,WeatherDisplay:10.37,2013-04-04 11:30:00,
2013-04-04 12:35:00,46.6,31.3,30.30,SE,141,4.6,4.6,55,0.00,FEW,OVC,0.00,0.0,WeatherDisplay:10.37,2013-04-04 11:35:00,
2013-04-04 12:40:00,46.8,31.9,30.30,WNW,296,2.3,2.3,56,0.00,FEW,OVC,0.00,0.0,WeatherDisplay:10.37,2013-04-04 11:40:00,
2013-04-04 12:45:00,47.8,32.9,30.30,NW,321,3.5,3.5,56,0.00,FEW,OVC,0.00,0.0,WeatherDisplay:10.37,2013-04-04 11:45:00,
2013-04-04 12:50:00,47.8,31.5,30.30,SSE,162,3.5,3.5,53,0.00,FEW,OVC,0.00,0.0,WeatherDisplay:10.37,2013-04-04 11:50:00,
2013-04-04 12:55:00,47.7,31.9,30.29,WNW,293,1.2,1.2,54,0.00,FEW,OVC,0.00,0.0,WeatherDisplay:10.37,2013-04-04 11:55:00,
2013-04-04 13:00:00,48.0,30.7,30.29,SE,124,3.5,3.5,51,0.00,FEW,OVC,0.00,0.0,WeatherDisplay:10.37,2013-04-04 12:00:00,
2013-04-04 13:05:00,47.7,31.4,30.29,West,267,1.2,1.2,53,0.00,FEW,OVC,0.00,0.0,WeatherDisplay:10.37,2013-04-04 12:05:00,
2013-04-04 13:10:00,48.4,33.4,30.30,WSW,252,2.3,2.3,56,0.00,FEW,OVC,0.00,0.0,WeatherDisplay:10.37,2013-04-04 12:10:00,
2013-04-04 13:15:00,49.9,33.0,30.29,SE,139,3.5,3.5,52,0.00,FEW,OVC,0.00,0.0,WeatherDisplay:10.37,2013-04-04 12:15:00,
2013-04-04 13:20:00,50.1,31.2,30.30,SE,124,3.5,3.5,48,0.00,FEW,OVC,0.00,0.0,WeatherDisplay:10.37,2013-04-04 12:20:00,
2013-04-04 13:25:00,49.5,31.1,30.29,WNW,288,2.0,2.0,49,0.00,FEW,OVC,0.00,0.0,WeatherDisplay:10.37,2013-04-04 12:25:00,
2013-04-04 13:30:00,48.3,30.5,30.29,SSW,203,3.5,3.5,50,0.00,FEW,OVC,0.00,0.0,WeatherDisplay:10.37,2013-04-04 12:30:00,
2013-04-04 13:35:00,48.5,31.7,30.29,SW,228,3.5,3.5,52,0.00,FEW,OVC,0.00,0.0,WeatherDisplay:10.37,2013-04-04 12:35:00,
2013-04-04 13:40:00,48.8,31.5,30.29,West,259,2.0,2.0,51,0.00,FEW,OVC,0.00,0.0,WeatherDisplay:10.37,2013-04-04 12:40:00,
2013-04-04 13:45:00,48.6,31.3,30.29,West,267,2.3,2.3,51,0.00,FEW,OVC,0.00,0.0,WeatherDisplay:10.37,2013-04-04 12:45:00,
2013-04-04 13:50:00,48.8,31.9,30.29,ESE,113,1.2,1.2,52,0.00,FEW,OVC,0.00,0.0,WeatherDisplay:10.37,2013-04-04 12:50:00,
2013-04-04 13:55:00,49.3,30.4,30.29,South,180,1.2,1.2,48,0.00,FEW,OVC,0.00,0.0,WeatherDisplay:10.37,2013-04-04 12:55:00,
2013-04-04 14:01:00,47.9,29.1,30.29,SW,236,3.5,3.5,48,0.00,FEW,OVC,0.00,0.0,WeatherDisplay:10.37,2013-04-04 13:01:00,
2013-04-04 14:06:00,47.9,31.1,30.29,SW,221,1.2,1.2,52,0.00,OVC,,0.00,0.0,WeatherDisplay:10.37,2013-04-04 13:06:00,
2013-04-04 14:11:00,49.3,30.9,30.28,South,177,2.3,2.3,49,0.00,OVC,,0.00,0.0,WeatherDisplay:10.37,2013-04-04 13:11:00,
2013-04-04 14:16:00,49.0,30.1,30.29,South,181,2.3,2.3,48,0.00,OVC,,0.00,0.0,WeatherDisplay:10.37,2013-04-04 13:16:00,
2013-04-04 14:21:00,48.1,29.3,30.28,SE,128,1.2,1.7,48,0.00,OVC,,0.00,0.0,WeatherDisplay:10.37,2013-04-04 13:21:00,
2013-04-04 14:26:00,49.2,31.8,30.28,WNW,297,3.5,3.5,51,0.00,OVC,,0.00,0.0,WeatherDisplay:10.37,2013-04-04 13:26:00,
2013-04-04 14:31:00,50.4,30.4,30.28,SW,222,3.5,3.5,46,0.00,OVC,,0.00,0.0,WeatherDisplay:10.37,2013-04-04 13:31:00,
2013-04-04 14:36:00,49.3,29.4,30.28,SSE,166,2.3,2.3,46,0.00,FEW,OVC,0.00,0.0,WeatherDisplay:10.37,2013-04-04 13:36:00,
2013-04-04 14:41:00,48.3,29.0,30.28,SSE,157,4.6,4.6,47,0.00,FEW,OVC,0.00,0.0,WeatherDisplay:10.37,2013-04-04 13:41:00,
2013-04-04 14:46:00,48.0,29.2,30.28,SSE,150,2.3,2.3,48,0.00,FEW,OVC,0.00,0.0,WeatherDisplay:10.37,2013-04-04 13:46:00,
2013-04-04 14:51:00,47.8,29.5,30.28,SE,143,3.0,3.0,49,0.00,FEW,OVC,0.00,0.0,WeatherDisplay:10.37,2013-04-04 13:51:00,
2013-04-04 14:56:00,48.0,29.2,30.27,WSW,242,2.3,2.3,48,0.00,FEW,OVC,0.00,0.0,WeatherDisplay:10.37,2013-04-04 13:56:00,
2013-04-04 15:01:00,47.8,29.5,30.27,NW,304,2.0,2.0,49,0.00,FEW,OVC,0.00,0.0,WeatherDisplay:10.37,2013-04-04 14:01:00,
2013-04-04 15:08:00,47.7,30.4,30.27,SW,221,2.3,2.3,51,0.00,FEW,OVC,0.00,0.0,WeatherDisplay:10.37,2013-04-04 14:08:00,
2013-04-04 15:13:00,49.1,30.7,30.27,West,276,4.6,4.6,49,0.00,FEW,OVC,0.00,0.0,WeatherDisplay:10.37,2013-04-04 14:13:00,
2013-04-04 15:18:00,50.7,31.2,30.26,South,180,3.5,3.5,47,0.00,FEW,OVC,0.00,0.0,WeatherDisplay:10.37,2013-04-04 14:18:00,
2013-04-04 15:23:00,50.4,29.8,30.26,WNW,297,2.3,2.3,45,0.00,FEW,OVC,0.00,0.0,WeatherDisplay:10.37,2013-04-04 14:23:00,
2013-04-04 15:28:00,49.2,30.8,30.26,WSW,248,2.3,2.3,49,0.00,FEW,OVC,0.00,0.0,WeatherDisplay:10.37,2013-04-04 14:28:00,
2013-04-04 15:33:00,48.2,30.4,30.26,West,272,3.5,3.5,50,0.00,OVC,,0.00,0.0,WeatherDisplay:10.37,2013-04-04 14:33:00,
2013-04-04 15:39:00,48.7,31.8,30.26,West,266,2.3,2.3,52,0.00,OVC,,0.00,0.0,WeatherDisplay:10.37,2013-04-04 14:39:00,
2013-04-04 15:44:00,49.2,31.3,30.26,SE,137,2.3,2.3,50,0.00,OVC,,0.00,0.0,WeatherDisplay:10.37,2013-04-04 14:44:00,
2013-04-04 15:49:00,48.6,31.3,30.26,SW,232,2.0,2.0,51,0.00,OVC,,0.00,0.0,WeatherDisplay:10.37,2013-04-04 14:49:00,
2013-04-04 15:54:00,48.2,31.4,30.26,SW,224,3.5,3.5,52,0.00,OVC,,0.00,0.0,WeatherDisplay:10.37,2013-04-04 14:54:00,
2013-04-04 16:00:00,48.1,30.8,30.26,WSW,251,1.0,3.0,51,0.00,OVC,OVC,0.00,0.0,WeatherDisplay:10.37,2013-04-04 15:00:00,
2013-04-04 16:05:00,47.7,30.9,30.26,West,267,2.3,2.3,52,0.00,OVC,,0.00,0.0,WeatherDisplay:10.37,2013-04-04 15:05:00,
2013-04-04 16:10:00,47.4,30.6,30.26,NNE,26,2.3,2.3,52,0.00,OVC,,0.00,0.0,WeatherDisplay:10.37,2013-04-04 15:10:00,
2013-04-04 16:15:00,47.2,30.9,30.26,SW,221,2.3,2.3,53,0.00,OVC,,0.00,0.0,WeatherDisplay:10.37,2013-04-04 15:15:00,
2013-04-04 16:20:00,46.9,30.6,30.26,SSW,204,3.5,3.5,53,0.00,OVC,,0.00,0.0,WeatherDisplay:10.37,2013-04-04 15:20:00,
2013-04-04 16:25:00,46.7,30.9,30.26,SW,218,2.3,0.0,54,0.00,OVC,,0.00,0.0,WeatherDisplay:10.37,2013-04-04 15:25:00,
2013-04-04 16:30:00,46.4,30.6,30.26,SW,214,3.5,3.5,54,0.00,OVC,,0.00,0.0,WeatherDisplay:10.37,2013-04-04 15:30:00,
2013-04-04 16:35:00,46.2,30.5,30.25,SW,226,2.3,2.3,54,0.00,OVC,,0.00,0.0,WeatherDisplay:10.37,2013-04-04 15:35:00,
2013-04-04 16:40:00,46.0,30.7,30.25,SW,229,3.5,3.5,55,0.00,OVC,,0.00,0.0,WeatherDisplay:10.37,2013-04-04 15:40:00,
2013-04-04 16:46:00,46.1,31.7,30.26,WSW,241,1.2,1.2,57,0.00,OVC,,0.00,0.0,WeatherDisplay:10.37,2013-04-04 15:46:00,
2013-04-04 16:51:00,46.4,32.4,30.25,WSW,243,0.0,0.0,58,0.00,OVC,,0.00,0.0,WeatherDisplay:10.37,2013-04-04 15:51:00,
2013-04-04 16:56:00,47.1,33.1,30.25,SE,141,0.0,0.0,58,0.00,OVC,,0.00,0.0,WeatherDisplay:10.37,2013-04-04 15:56:00,
2013-04-04 17:02:00,47.2,31.8,30.25,SW,230,2.3,2.3,55,0.00,OVC,,0.00,0.0,WeatherDisplay:10.37,2013-04-04 16:02:00,
2013-04-04 17:07:00,46.8,31.5,30.25,SW,236,2.3,2.3,55,0.00,OVC,,0.00,0.0,WeatherDisplay:10.37,2013-04-04 16:07:00,
2013-04-04 17:12:00,46.4,31.5,30.25,West,281,3.0,3.0,56,0.00,OVC,,0.00,0.0,WeatherDisplay:10.37,2013-04-04 16:12:00,
2013-04-04 17:17:00,46.2,32.2,30.25,WNW,283,1.2,1.2,58,0.00,OVC,,0.00,0.0,WeatherDisplay:10.37,2013-04-04 16:17:00,
2013-04-04 17:22:00,45.9,30.6,30.25,SSE,148,2.3,2.3,55,0.00,OVC,,0.00,0.0,WeatherDisplay:10.37,2013-04-04 16:22:00,
2013-04-04 17:27:00,45.6,31.7,30.25,SE,146,1.2,0.0,58,0.00,OVC,,0.00,0.0,WeatherDisplay:10.37,2013-04-04 16:27:00,
2013-04-04 17:32:00,45.5,31.1,30.25,West,277,2.3,2.3,57,0.00,OVC,,0.00,0.0,WeatherDisplay:10.37,2013-04-04 16:32:00,
2013-04-04 17:37:00,45.6,31.2,30.25,South,187,1.2,0.0,57,0.00,OVC,,0.00,0.0,WeatherDisplay:10.37,2013-04-04 16:37:00,
2013-04-04 17:42:00,45.7,31.3,30.25,SSW,200,0.0,0.0,57,0.00,OVC,,0.00,0.0,WeatherDisplay:10.37,2013-04-04 16:42:00,
2013-04-04 17:48:00,45.8,31.4,30.25,West,276,2.3,2.3,57,0.00,OVC,,0.00,0.0,WeatherDisplay:10.37,2013-04-04 16:48:00,
2013-04-04 17:53:00,45.7,32.2,30.25,NW,309,3.5,3.5,59,0.00,OVC,,0.00,0.0,WeatherDisplay:10.37,2013-04-04 16:53:00,
2013-04-04 17:58:00,45.7,33.0,30.25,SSE,148,1.2,0.0,61,0.00,OVC,,0.00,0.0,WeatherDisplay:10.37,2013-04-04 16:58:00,
2013-04-04 18:03:00,45.6,32.5,30.25,SE,143,3.0,3.0,60,0.00,OVC,,0.00,0.0,WeatherDisplay:10.37,2013-04-04 17:03:00,
2013-04-04 18:08:00,45.4,32.3,30.25,SW,231,1.2,0.0,60,0.00,OVC,,0.00,0.0,WeatherDisplay:10.37,2013-04-04 17:08:00,
2013-04-04 18:13:00,45.3,32.6,30.25,West,262,0.0,0.0,61,0.00,OVC,,0.00,0.0,WeatherDisplay:10.37,2013-04-04 17:13:00,
2013-04-04 18:18:00,45.1,32.8,30.25,West,280,2.3,2.3,62,0.00,OVC,,0.00,0.0,WeatherDisplay:10.37,2013-04-04 17:18:00,
2013-04-04 18:23:00,44.9,33.1,30.25,WSW,252,3.5,3.5,63,0.00,OVC,,0.00,0.0,WeatherDisplay:10.37,2013-04-04 17:23:00,
2013-04-04 18:28:00,44.8,33.4,30.25,West,273,1.2,0.0,64,0.00,OVC,,0.00,0.0,WeatherDisplay:10.37,2013-04-04 17:28:00,
2013-04-04 18:33:00,44.7,33.3,30.25,WNW,290,1.2,0.0,64,0.00,OVC,,0.00,0.0,WeatherDisplay:10.37,2013-04-04 17:33:00,
2013-04-04 18:38:00,44.5,33.5,30.25,SSE,163,1.2,1.2,65,0.00,OVC,,0.00,0.0,WeatherDisplay:10.37,2013-04-04 17:38:00,
2013-04-04 18:43:00,44.3,33.3,30.25,WNW,293,1.2,1.2,65,0.00,OVC,,0.00,0.0,WeatherDisplay:10.37,2013-04-04 17:43:00,
2013-04-04 18:48:00,43.9,32.9,30.25,WNW,300,1.2,1.2,65,0.00,OVC,,0.00,0.0,WeatherDisplay:10.37,2013-04-04 17:48:00,
2013-04-04 18:53:00,43.6,33.0,30.25,NNW,335,0.0,0.0,66,0.00,OVC,,0.00,0.0,WeatherDisplay:10.37,2013-04-04 17:53:00,
2013-04-04 18:58:00,43.2,33.0,30.25,West,269,1.2,1.2,67,0.00,OVC,,0.00,0.0,WeatherDisplay:10.37,2013-04-04 17:58:00,
2013-04-04 19:03:00,42.9,32.7,30.25,WSW,250,0.0,0.0,67,0.00,OVC,,0.00,0.0,WeatherDisplay:10.37,2013-04-04 18:03:00,
2013-04-04 19:08:00,42.6,32.4,30.25,WSW,250,0.0,0.0,67,0.00,OVC,,0.00,0.0,WeatherDisplay:10.37,2013-04-04 18:08:00,
2013-04-04 19:13:00,42.3,32.5,30.25,WSW,250,0.0,0.0,68,0.00,OVC,,0.00,0.0,WeatherDisplay:10.37,2013-04-04 18:13:00,
2013-04-04 19:18:00,42.2,32.8,30.25,WSW,250,0.0,0.0,69,0.00,OVC,,0.00,0.0,WeatherDisplay:10.37,2013-04-04 18:18:00,
2013-04-04 19:24:00,42.5,33.0,30.25,WSW,250,0.0,0.0,69,0.00,OVC,,0.00,0.0,WeatherDisplay:10.37,2013-04-04 18:24:00,
2013-04-04 19:29:00,42.7,32.9,30.25,WSW,250,0.0,0.0,68,0.00,OVC,,0.00,0.0,WeatherDisplay:10.37,2013-04-04 18:29:00,
2013-04-04 19:34:00,42.8,33.0,30.25,WSW,250,0.0,0.0,68,0.00,FEW,OVC,0.00,0.0,WeatherDisplay:10.37,2013-04-04 18:34:00,
2013-04-04 19:39:00,42.8,33.0,30.25,WSW,250,0.0,0.0,68,0.00,FEW,OVC,0.00,0.0,WeatherDisplay:10.37,2013-04-04 18:39:00,
2013-04-04 19:44:00,42.5,32.7,30.25,WSW,250,0.0,0.0,68,0.00,FEW,OVC,0.00,0.0,WeatherDisplay:10.37,2013-04-04 18:44:00,
2013-04-04 19:49:00,42.2,32.4,30.25,WSW,250,0.0,0.0,68,0.00,FEW,OVC,0.00,0.0,WeatherDisplay:10.37,2013-04-04 18:49:00,
2013-04-04 19:55:00,41.8,32.4,30.25,WSW,250,0.0,0.0,69,0.00,FEW,OVC,0.00,0.0,WeatherDisplay:10.37,2013-04-04 18:55:00,
2013-04-04 20:00:00,41.4,32.3,30.25,WSW,250,0.0,0.0,70,0.00,FEW,OVC,0.00,0.0,WeatherDisplay:10.37,2013-04-04 19:00:00,
2013-04-04 20:05:00,41.2,32.5,30.25,WSW,250,0.0,0.0,71,0.00,BKN,OVC,0.00,0.0,WeatherDisplay:10.37,2013-04-04 19:05:00,
2013-04-04 20:10:00,41.3,33.0,30.26,WSW,250,0.0,0.0,72,0.00,BKN,OVC,0.00,0.0,WeatherDisplay:10.37,2013-04-04 19:10:00,
2013-04-04 20:15:00,41.3,33.3,30.26,WSW,250,0.0,0.0,73,0.00,BKN,OVC,0.00,0.0,WeatherDisplay:10.37,2013-04-04 19:15:00,
2013-04-04 20:20:00,41.4,33.4,30.26,WSW,250,0.0,0.0,73,0.00,BKN,OVC,0.00,0.0,WeatherDisplay:10.37,2013-04-04 19:20:00,
2013-04-04 20:25:00,41.4,33.4,30.26,WSW,250,0.0,0.0,73,0.00,BKN,OVC,0.00,0.0,WeatherDisplay:10.37,2013-04-04 19:25:00,
2013-04-04 20:30:00,41.3,33.3,30.26,WSW,250,0.0,0.0,73,0.00,BKN,OVC,0.00,0.0,WeatherDisplay:10.37,2013-04-04 19:30:00,
2013-04-04 20:35:00,41.2,33.5,30.26,SE,143,0.0,0.0,74,0.00,FEW,OVC,0.00,0.0,WeatherDisplay:10.37,2013-04-04 19:35:00,
2013-04-04 20:40:00,41.0,33.0,30.26,SE,142,0.0,0.0,73,0.00,FEW,OVC,0.00,0.0,WeatherDisplay:10.37,2013-04-04 19:40:00,
2013-04-04 20:45:00,40.7,32.7,30.26,SE,142,0.0,0.0,73,0.00,FEW,OVC,0.00,0.0,WeatherDisplay:10.37,2013-04-04 19:45:00,
2013-04-04 20:50:00,40.4,32.4,30.26,SE,143,0.0,0.0,73,0.00,FEW,OVC,0.00,0.0,WeatherDisplay:10.37,2013-04-04 19:50:00,
2013-04-04 20:55:00,40.1,32.5,30.26,SE,143,0.0,1.0,74,0.00,FEW,OVC,0.00,0.0,WeatherDisplay:10.37,2013-04-04 19:55:00,
2013-04-04 21:00:00,39.8,32.5,30.26,SE,143,0.0,1.0,75,0.00,FEW,OVC,0.00,0.0,WeatherDisplay:10.37,2013-04-04 20:00:00,
2013-04-04 21:05:00,39.5,32.6,30.26,SE,143,0.0,0.0,76,0.00,FEW,OVC,0.00,0.0,WeatherDisplay:10.37,2013-04-04 20:05:00,
2013-04-04 21:10:00,39.3,32.3,30.26,SE,143,0.0,0.0,76,0.00,FEW,OVC,0.00,0.0,WeatherDisplay:10.37,2013-04-04 20:10:00,
2013-04-04 21:15:00,39.0,32.4,30.26,SE,142,0.0,0.0,77,0.00,FEW,OVC,0.00,0.0,WeatherDisplay:10.37,2013-04-04 20:15:00,
2013-04-04 21:20:00,38.9,32.3,30.26,SE,124,1.2,1.2,77,0.00,FEW,OVC,0.00,0.0,WeatherDisplay:10.37,2013-04-04 20:20:00,
2013-04-04 21:25:00,38.6,32.3,30.26,SE,138,0.0,0.1,78,0.00,FEW,OVC,0.00,0.0,WeatherDisplay:10.37,2013-04-04 20:25:00,
2013-04-04 21:30:00,38.7,32.4,30.26,SE,139,0.0,0.0,78,0.00,FEW,OVC,0.00,0.0,WeatherDisplay:10.37,2013-04-04 20:30:00,
2013-04-04 21:35:00,38.8,32.6,30.26,SE,139,0.0,1.0,78,0.00,SCT,OVC,0.00,0.0,WeatherDisplay:10.37,2013-04-04 20:35:00,
2013-04-04 21:40:00,38.9,32.6,30.26,SE,142,0.0,0.0,78,0.00,SCT,OVC,0.00,0.0,WeatherDisplay:10.37,2013-04-04 20:40:00,
2013-04-04 21:45:00,39.1,32.8,30.26,SE,142,0.0,0.0,78,0.00,SCT,OVC,0.00,0.0,WeatherDisplay:10.37,2013-04-04 20:45:00,
2013-04-04 21:50:00,39.1,32.8,30.26,SE,142,0.0,0.0,78,0.00,SCT,OVC,0.00,0.0,WeatherDisplay:10.37,2013-04-04 20:50:00,
2013-04-04 21:55:00,39.2,32.9,30.26,SE,142,0.0,0.0,78,0.00,SCT,OVC,0.00,0.0,WeatherDisplay:10.37,2013-04-04 20:55:00,
2013-04-04 22:00:00,39.3,33.0,30.26,SE,142,0.0,0.0,78,0.00,SCT,OVC,0.00,0.0,WeatherDisplay:10.37,2013-04-04 21:00:00,
2013-04-04 22:05:00,39.4,33.1,30.26,SE,143,0.0,0.0,78,0.00,BKN,OVC,0.00,0.0,WeatherDisplay:10.37,2013-04-04 21:05:00,
2013-04-04 22:10:00,39.6,33.0,30.26,SE,143,0.0,0.0,77,0.00,BKN,OVC,0.00,0.0,WeatherDisplay:10.37,2013-04-04 21:10:00,
2013-04-04 22:15:00,39.7,33.4,30.26,WNW,290,3.5,3.5,78,0.00,BKN,OVC,0.00,0.0,WeatherDisplay:10.37,2013-04-04 21:15:00,
2013-04-04 22:20:00,40.0,33.4,30.26,ESE,121,1.2,1.2,77,0.00,BKN,OVC,0.00,0.0,WeatherDisplay:10.37,2013-04-04 21:20:00,
2013-04-04 22:25:00,40.5,33.5,30.26,SW,221,1.2,1.2,76,0.00,BKN,OVC,0.00,0.0,WeatherDisplay:10.37,2013-04-04 21:25:00,
2013-04-04 22:30:00,40.7,33.7,30.26,WSW,257,1.2,0.0,76,0.00,BKN,OVC,0.00,0.0,WeatherDisplay:10.37,2013-04-04 21:30:00,
2013-04-04 22:35:00,40.8,33.8,30.26,SE,136,0.0,0.0,76,0.00,SCT,OVC,0.00,0.0,WeatherDisplay:10.37,2013-04-04 21:35:00,
2013-04-04 22:40:00,40.7,34.0,30.26,SW,218,1.2,0.0,77,0.00,SCT,OVC,0.00,0.0,WeatherDisplay:10.37,2013-04-04 21:40:00,
2013-04-04 22:45:00,40.7,34.0,30.26,SSE,149,2.3,2.3,77,0.00,SCT,OVC,0.00,0.0,WeatherDisplay:10.37,2013-04-04 21:45:00,
2013-04-04 22:50:00,40.6,34.3,30.26,SE,131,2.3,2.3,78,0.00,SCT,OVC,0.00,0.0,WeatherDisplay:10.37,2013-04-04 21:50:00,
2013-04-04 22:55:00,40.6,34.3,30.26,ENE,63,1.2,0.0,78,0.00,SCT,OVC,0.00,0.0,WeatherDisplay:10.37,2013-04-04 21:55:00,
2013-04-04 23:00:00,40.5,34.2,30.26,SSE,151,0.0,0.0,78,0.00,SCT,OVC,0.00,0.0,WeatherDisplay:10.37,2013-04-04 22:00:00,
2013-04-04 23:05:00,40.2,33.9,30.26,NE,51,1.2,1.2,78,0.00,BKN,OVC,0.00,0.0,WeatherDisplay:10.37,2013-04-04 22:05:00,
2013-04-04 23:10:00,40.0,34.0,30.26,ESE,119,1.2,1.2,79,0.00,BKN,OVC,0.00,0.0,WeatherDisplay:10.37,2013-04-04 22:10:00,
2013-04-04 23:15:00,39.7,34.0,30.26,SE,144,1.0,0.0,80,0.00,BKN,OVC,0.00,0.0,WeatherDisplay:10.37,2013-04-04 22:15:00,
2013-04-04 23:20:00,39.6,33.9,30.26,SE,132,1.2,1.2,80,0.00,BKN,OVC,0.00,0.0,WeatherDisplay:10.37,2013-04-04 22:20:00,
2013-04-04 23:25:00,39.5,34.2,30.26,ESE,111,1.2,0.0,81,0.00,BKN,OVC,0.00,0.0,WeatherDisplay:10.37,2013-04-04 22:25:00,
2013-04-04 23:31:00,39.4,34.1,30.26,SE,137,0.0,0.0,81,0.00,BKN,OVC,0.00,0.0,WeatherDisplay:10.37,2013-04-04 22:31:00,
2013-04-04 23:36:00,39.3,34.0,30.26,SE,131,0.0,0.0,81,0.00,OVC,,0.00,0.0,WeatherDisplay:10.37,2013-04-04 22:36:00,
2013-04-04 23:41:00,39.2,33.9,30.26,SE,129,1.2,0.0,81,0.00,OVC,,0.00,0.0,WeatherDisplay:10.37,2013-04-04 22:41:00,
2013-04-04 23:46:00,39.2,33.9,30.26,SSE,149,0.0,0.0,81,0.00,OVC,,0.00,0.0,WeatherDisplay:10.37,2013-04-04 22:46:00,
2013-04-04 23:51:00,39.0,34.0,30.26,West,280,1.0,1.2,82,0.00,OVC,,0.00,0.0,WeatherDisplay:10.37,2013-04-04 22:51:00,
2013-04-04 23:56:00,39.2,34.2,30.26,WSW,255,3.5,0.0,82,0.00,OVC,,0.00,0.0,WeatherDisplay:10.37,2013-04-04 22:56:00,